SKYNET 5A

Last updated on Tue Sep 22 2026 00:03:11 GMT+0000 (Coordinated Universal Time)

1 30794U 07007B 26264.50796410 -.00000272 00000+0 00000+0 0 9999 2 30794 5.5396 72.5153 0003500 119.3810 86.5827 1.00270314 71661
UTC large
Height (km)
Speed (km/s)
/
Latitude / Longitude
Inclination (degrees)
Orbital Period (minutes)
Azimuth
Elevation
Range (km)
Doppler Factor

Next 0 passes for location: London (51.5072 / 0.1276)

No passes found over London.
SKYNET 5A